sat.trackr.live / text

‹ back to catalog

EUCROPIS

NORAD 43807 · 2018-099BB

PAYLOAD ACTIVE UNKNOWN

§ Identity

Operator
Country
GER
Launch date
2018-12-03
Launch site
AFWTR
Launch vehicle
Mass (kg)
RCS (m²)

External: N2YO · Heavens-Above · Gunter

§ Orbital elements

Epoch: 2026-05-25T03:55:05.757312Z

Period
94.73 min
Inclination
97.4236°
Eccentricity
0.0005919
Mean motion
15.20184626 rev/d
Perigee alt
501.2 km
Apogee alt
509.4 km
Semi-major
6,883.4 km
B*
3.8458e-4
RAAN
201.2857°
Arg perigee
36.9341°
Mean anomaly
323.2300°
Rev number
40,896

§ Raw data

EUCROPIS1 43807U 18099BB  26145.16326108  .00008266  00000+0  38458-3 0  99962 43807  97.4236 201.2857 0005919  36.9341 323.2300 15.20184626408965

JSON: /api/v1/satellites/43807 · /tle

For live sub-satellite position, see the globe view (requires WebGL).

§ Visibility from observer

Set your observer location to see the next 7 days of passes ≥ 10°. The values pass through the URL so the page stays shareable.

No JS? Fill the form by hand. The geolocation button needs JavaScript.

§ Radio — SatNOGS DB

ModeDescriptionDownlinkUplink
FM S-band telemetry 2.263 GHz

1 transmitter · refreshed weekly from db.satnogs.org